Weather History for Fort Lewis, WA

Change the Weather History Date:

Monday, January 27, 2014

  Actual Average Record
Temperature  
Mean Temperature 35 °F -  
Max Temperature 39 °F 46 °F 55 °F (2003)
Min Temperature 31 °F 34 °F 21 °F (1997)
Degree Days  
Heating Degree Days 30    
Moisture  
Dew Point 35 °F    
Average Humidity 100    
Maximum Humidity 100    
Minimum Humidity 99    
Precipitation  
Precipitation 0.00 in - - ()
Sea Level Pressure  
Sea Level Pressure 30.18 in    
Wind  
Wind Speed 2 mph (SE)    
Max Wind Speed 7 mph    
Max Gust Speed -    
Visibility 3 miles    
Events Fog , Rain    
Averages and records for this station are not official NWS values.
T = Trace of Precipitation, MM = Missing Value Source: NWS Daily Summary

Daily Weather History Graph

Daily Weather History Graph

Search for Another Location

Airport:

Trip Planner

Search our weather history database for the weather conditions in past years. The results will help you decide how hot, cold, wet, or windy it might be!

Date:

Astronomy

Jan. 27, 2014 Rise Set
Actual Time 7:41 AM PST 5:05 PM PST
Civil Twilight 7:08 AM PST 5:38 PM PST
Nautical Twilight 6:31 AM PST 6:15 PM PST
Astronomical Twilight 5:55 AM PST 6:51 PM PST
Moon 4:31 AM PST (1/27) 1:54 PM PST (1/27)
Length of Visible Light 10h 30m
Length of Day
9h 24m
Waning Crescent, 14% of the Moon is Illuminated
Jan 27
Waning Crescent
Jan 30
New
Feb 6
First Quarter
Feb 14
Full
Feb 22
Last Quarter

Hourly Weather History & Observations

Time (PST) Temp. Windchill Dew Point Humidity Pressure Visibility Wind Dir Wind Speed Gust Speed Precip Events Conditions
12:14 AM 32.0 °F - 32.0 °F 100% 30.12 in 0.5 mi East 1.2 mph - N/A   Mostly Cloudy
12:31 AM 32.0 °F - 32.0 °F 100% 30.13 in 0.5 mi SSE 2.3 mph - N/A Fog Light Freezing Fog
12:56 AM 32.0 °F - 32.0 °F 100% 30.13 in 0.5 mi ESE 2.3 mph - N/A Fog Light Freezing Fog
1:37 AM 32.0 °F 28.7 °F 32.0 °F 100% 30.12 in 0.2 mi SE 3.5 mph - N/A Fog Light Freezing Fog
1:55 AM 32.0 °F - 32.0 °F 100% 30.14 in 0.2 mi SE 2.3 mph - N/A Fog Light Freezing Fog
2:55 AM 32.0 °F 28.7 °F 32.0 °F 100% 30.16 in 0.2 mi SSE 3.5 mph - N/A Fog Light Freezing Fog
3:14 AM 32.0 °F - 32.0 °F 100% 30.13 in 0.5 mi East 2.3 mph - N/A Fog Fog
3:24 AM 32.0 °F - 32.0 °F 100% 30.12 in 0.5 mi ESE 2.3 mph - N/A Fog Fog
3:47 AM 32.0 °F 28.7 °F 32.0 °F 100% 30.14 in 0.2 mi SE 3.5 mph - N/A Fog Light Freezing Fog
3:59 AM 32.0 °F - 32.0 °F 100% 30.17 in 0.2 mi SSE 2.3 mph - N/A Fog Light Freezing Fog
4:39 AM 32.0 °F - 32.0 °F 100% 30.15 in 0.2 mi SE 1.2 mph - N/A Fog Fog
4:55 AM 32.0 °F 25.6 °F 32.0 °F 100% 30.17 in 0.2 mi SE 6.9 mph - N/A Fog Light Freezing Fog
5:55 AM 32.0 °F 28.7 °F 32.0 °F 100% 30.17 in 0.5 mi ESE 3.5 mph - N/A Fog Light Freezing Fog
5:57 AM 32.0 °F 28.7 °F 32.0 °F 100% 30.17 in 0.5 mi SE 3.5 mph - N/A Fog Light Freezing Fog
6:58 AM 31.6 °F - 31.3 °F 99% 30.17 in 0.5 mi SE 2.3 mph - 0.00 in Fog Light Freezing Fog
7:31 AM 32.0 °F - 32.0 °F 100% 30.15 in 0.2 mi South 1.2 mph - N/A Fog Light Freezing Fog
7:56 AM 32.0 °F - 32.0 °F 100% 30.18 in 0.2 mi SE 1.2 mph - N/A Fog Light Freezing Fog
8:56 AM 32.0 °F 27.5 °F 32.0 °F 100% 30.19 in 0.2 mi SE 4.6 mph - N/A Fog Light Freezing Fog
9:15 AM 32.0 °F 27.5 °F 32.0 °F 100% 30.17 in 0.2 mi SE 4.6 mph - N/A Fog Light Freezing Fog
9:55 AM 32.0 °F - 32.0 °F 100% 30.19 in 0.2 mi South 2.3 mph - 0.00 in Fog Fog
10:57 AM 35.1 °F 32.2 °F 35.1 °F 100% 30.23 in 0.8 mi South 3.5 mph - N/A Fog Fog
11:13 AM 35.6 °F - 35.6 °F 100% 30.22 in 1.0 mi South 2.3 mph - N/A   Overcast
12:58 PM 37.8 °F - 37.8 °F 100% 30.20 in 1.0 mi NNE 2.3 mph - 0.00 in   Overcast
2:44 PM 39.2 °F - 39.2 °F 100% 30.18 in 2.0 mi Calm Calm - N/A   Mostly Cloudy
2:58 PM 39.0 °F - 39.0 °F 100% 30.20 in 2.0 mi Calm Calm - N/A   Scattered Clouds
3:24 PM 39.2 °F - 39.2 °F 100% 30.20 in 5.0 mi Calm Calm - N/A   Overcast
3:58 PM 39.2 °F 37.0 °F 39.2 °F 100% 30.20 in 4.0 mi East 3.5 mph - N/A   Overcast
4:19 PM 39.2 °F 37.0 °F 39.2 °F 100% 30.20 in 3.0 mi East 3.5 mph - N/A   Overcast
4:56 PM 38.5 °F - 38.5 °F 100% 30.20 in 2.5 mi Calm Calm - N/A   Overcast
5:24 PM 39.2 °F - 39.2 °F 100% 30.20 in 2.5 mi Calm Calm - N/A   Overcast
5:40 PM 39.2 °F - 39.2 °F 100% 30.20 in 5.0 mi Calm Calm - N/A   Mostly Cloudy
5:59 PM 38.3 °F - 38.3 °F 100% 30.20 in 7.0 mi Calm Calm - N/A   Mostly Cloudy
6:57 PM 37.6 °F - 37.6 °F 100% 30.21 in 7.0 mi Calm Calm - N/A   Overcast
7:59 PM 36.5 °F 33.9 °F 36.5 °F 100% 30.20 in 6.0 mi SE 3.5 mph - N/A   Overcast
8:57 PM 37.2 °F - 37.2 °F 100% 30.21 in 7.0 mi Calm Calm - N/A   Scattered Clouds
9:55 PM 37.4 °F - 37.4 °F 100% 30.21 in 7.0 mi Calm Calm - N/A   Scattered Clouds
9:58 PM 37.9 °F - 37.9 °F 100% 30.23 in 10.0 mi SSW 1.2 mph - 0.00 in   Mostly Cloudy
10:36 PM 39.2 °F - 39.2 °F 100% 30.22 in 10.0 mi Calm Calm - N/A Rain Light Rain
10:58 PM 38.3 °F - 38.3 °F 100% 30.23 in 10.0 mi East 1.2 mph - 0.00 in Rain Light Rain
11:58 PM 38.5 °F - 38.5 °F 100% 30.24 in 9.0 mi SSE 1.2 mph - 0.00 in   Light Drizzle